星链-32854 (STARLINK-32854)

导读

STARLINK-32854是美国SpaceX公司星链星座的成员卫星,于2025年1月24日成功发射,NORAD编号62816,国际编号2025-018L,轨道倾角约94.1度。星链项目旨在构建全球低轨卫星互联网,为偏远地区、海洋空中场景提供高速低延迟互联服务。该卫星继承星链设计,搭载霍尔推进器与通信载荷,可自主避障,服役结束后会主动离轨再入销毁,助力星链星座的服务覆盖与网络扩容。

基本信息
目录编号:
62816
目录名称:
STARLINK-32854
国际标识:
2025-018L
轨道中心:
EARTH
卫星名称:
星链-32854
卫星全名:
星链-32854 (STARLINK-32854)
卫星状态:
在轨 (已飞行506 天)
发射日期:
2025-01-24 UTC
国别 :
美国 (US)
星等 :
--
轨道信息
数据来源 国际轨道数据 AOE轨道数据
星历时间 2026-06-13T19:28:38+0800
20小时前
查看轨道信息
2026-06-11T05:00:00+0800
3天前
查看轨道信息
半长轴 6853.331km 6853.34km
偏心率 0.0001027 0.0001317
轨道倾角 53.159° 53.157°
近地点辐角 89.770° 88.044°
升交点赤经 224.700° 236.795°
平近点角 270.342° 323.784°
近地点 474.49km 474.3km
远地点 475.898km 476.106km
周期 94.105分钟 94.105分钟
每日圈数 15.302072 15.302041
详细信息
固有亮度:
5
最大亮度:
2.5
卫星平台:
Starlink V1.0
覆盖范围:
全球
运营商:
太空探索技术公司
运营商所在国:
美国
制造商(研发单位):
太空探索技术公司
制造商所在国:
美国
使用方式:
暂无
卫星简介
Starlink 计划是 SpaceX 推出的全球卫星互联网项目,通过发射低轨道卫星,为全球尤其是偏远地区提供高速、低延迟的互联网服务。自 2019 年起,Starlink 已部署数千颗卫星,旨在缩小全球数字鸿沟,推动互联网普及。该项目还为军事、航空等行业提供通信支持,带来广泛经济效益。
2D轨道图
3D轨道图
轨道高度分析图
轨道倾角分析图
轨道综合分析图
查看轨道综合分析图